Theta_e
286 287 287 288 287 286 287 287 287 288 288 291 290 285 287 290 286 286 288 289 290 287 288 289 291 291 293 294 295 297 297 299 303 306 305 304 304 305 304 304 304 304 304 304 304 304 303 304 304 305 307 310 313 315 316 317 319 319 320 320 320 320 321 321 320 320 320 320 322 322 323 323 324 324 324 324 324 323 323 324 324 324 323 323 323 323 322
287 287 287 290 289 288 288 286 286 286 288 288 288 286 285 287 287 287 288 288 286 287 288 290 291 293 294 295 297 299 298 298 301 301 301 301 300 301 301 301 301 302 302 302 302 303 303 302 302 302 303 305 308 313 315 316 317 317 319 319 319 319 320 320 320 320 319 320 321 322 321 321 322 321 321 322 322 322 322 322 322 321 321 322 321 321 321
285 286 288 290 288 289 286 286 286 286 286 287 287 286 285 287 287 287 288 287 285 288 290 290 292 293 295 296 295 296 297 298 299 299 299 299 299 299 300 300 301 301 302 302 302 302 302 303 303 303 304 303 305 308 310 313 314 314 317 318 318 319 319 320 320 320 319 319 320 320 321 321 322 320 320 321 321 321 321 320 320 320 321 320 321 321 321
283 286 285 286 288 287 286 285 286 285 285 285 284 283 283 285 287 285 287 286 284 287 289 290 291 291 291 291 293 294 295 298 298 298 298 298 298 299 299 300 301 301 301 302 302 302 302 302 302 303 304 303 304 303 305 305 306 308 312 312 312 312 313 315 319 320 319 318 318 318 319 319 319 318 318 318 318 318 318 316 316 317 318 318 318 318 319
281 283 284 285 286 285 282 284 284 284 283 284 282 283 284 283 284 285 286 286 287 288 290 288 288 289 289 289 290 292 294 295 296 296 296 297 297 298 298 299 300 300 301 302 303 303 302 302 302 302 303 303 302 303 303 303 304 306 306 307 307 308 310 313 315 316 316 318 318 317 317 316 316 316 316 316 315 315 315 315 316 317 315 315 316 316 316
282 282 284 284 283 277 279 284 284 286 285 285 284 282 283 285 286 285 287 287 288 288 288 287 286 286 286 288 289 290 292 293 293 294 295 297 298 299 299 299 300 301 302 303 304 304 304 304 304 304 305 303 303 305 304 304 305 305 305 306 307 307 307 308 309 311 312 312 312 313 314 315 316 316 317 317 316 316 314 314 316 315 314 315 313 315 315
279 282 283 280 274 278 284 287 287 288 287 286 284 284 284 285 287 287 286 286 287 287 287 287 287 287 288 290 289 289 291 292 292 291 292 293 295 296 298 299 300 301 302 302 303 303 303 304 305 305 304 306 306 306 307 306 305 305 305 306 306 307 307 307 309 309 310 310 310 311 312 312 313 313 313 313 314 315 316 317 318 317 316 315 314 314 313
281 279 279 273 276 282 285 286 287 288 288 287 287 284 284 285 285 286 285 285 286 287 286 287 288 288 289 289 289 290 290 292 293 292 292 292 293 293 295 296 298 299 300 300 300 300 302 302 301 303 305 306 305 306 306 306 305 305 306 306 306 307 306 306 307 308 310 310 310 310 310 310 310 310 312 313 313 312 312 312 312 312 311 314 314 314 312
279 277 276 276 280 281 283 283 285 286 284 285 284 280 281 285 285 287 286 286 287 288 288 289 289 289 290 288 288 291 290 291 292 292 292 293 293 294 294 295 297 298 300 298 299 300 301 300 298 300 302 305 306 306 304 304 306 306 308 307 306 307 306 306 307 307 307 307 307 307 309 309 309 310 310 310 310 311 312 312 312 312 312 311 310 312 313
280 277 275 276 276 275 280 284 287 287 288 287 287 284 281 286 286 286 287 287 287 288 289 289 289 289 289 285 286 290 291 292 292 293 293 294 294 294 295 296 296 297 298 299 298 299 300 299 299 299 300 303 304 304 304 304 304 304 305 306 307 308 307 308 308 309 309 309 307 306 307 308 309 310 311 312 312 313 312 312 311 311 310 309 308 308 310
278 278 278 275 275 277 281 283 285 287 287 287 286 284 280 284 285 286 287 286 286 288 289 289 290 289 285 284 286 290 291 291 292 293 293 294 294 294 294 295 295 296 296 297 298 298 299 298 298 300 301 303 303 303 303 303 304 304 304 306 307 306 308 308 309 308 307 307 306 307 306 307 309 309 311 311 311 312 314 314 312 310 309 310 308 307 306
279 279 278 277 275 277 282 284 285 287 287 287 285 277 278 284 286 286 287 287 287 288 288 289 290 288 285 285 287 291 291 292 293 293 293 293 294 294 295 296 296 296 296 296 297 297 297 297 299 299 300 303 303 302 303 303 303 303 304 304 305 306 308 308 307 307 308 308 309 309 309 310 310 311 310 309 310 311 310 310 310 309 308 309 309 307 304
278 278 276 277 278 283 285 284 286 287 286 286 279 276 280 285 286 287 288 287 288 289 288 289 286 287 288 289 290 292 292 292 293 293 294 293 293 293 294 294 295 296 296 296 295 296 297 297 298 299 299 300 300 300 300 301 301 301 301 301 301 302 304 305 307 307 307 308 310 310 310 309 309 309 309 310 309 308 308 306 307 306 306 306 305 303 302
279 277 278 278 279 282 284 286 287 286 285 279 278 281 285 288 286 287 288 288 288 289 288 288 288 289 290 291 291 291 291 291 292 292 293 293 293 293 294 294 294 294 294 295 296 297 297 297 297 297 298 298 298 299 299 300 300 300 300 300 301 301 302 303 305 307 308 308 310 311 309 309 308 307 306 305 304 303 302 303 304 304 303 304 305 303 302
278 277 277 276 274 280 286 286 285 288 282 281 284 286 287 288 288 288 289 289 288 290 289 289 290 290 290 290 290 291 291 290 290 291 291 292 292 292 293 294 294 294 294 294 295 296 296 297 297 297 297 297 297 298 298 300 300 300 300 301 301 300 301 301 303 305 307 309 308 308 309 309 308 307 304 304 304 305 306 306 307 306 307 306 307 306 305
278 277 275 275 280 282 287 286 282 284 286 287 289 288 286 289 290 289 290 289 290 290 290 289 290 290 290 290 290 290 290 290 291 292 292 292 292 292 293 293 293 293 293 294 294 295 296 297 297 297 296 296 296 296 298 300 300 300 300 300 301 301 302 302 302 303 304 306 308 308 308 308 308 309 306 306 306 307 308 308 308 307 306 306 307 307 306
279 278 279 282 284 286 288 289 287 288 290 290 291 290 288 288 288 290 290 289 290 291 290 290 289 288 287 287 287 287 287 288 290 290 290 290 291 291 291 292 293 293 292 292 293 294 295 296 297 297 296 295 295 296 298 298 298 299 299 299 300 300 301 302 303 303 304 304 306 307 307 307 307 307 308 307 306 306 307 309 308 306 306 306 306 306 306
284 285 285 286 285 286 287 289 290 290 289 290 292 291 288 289 290 290 289 289 288 288 288 288 287 286 285 285 286 286 287 287 288 289 290 290 290 290 291 291 291 291 292 292 292 292 293 294 295 296 296 296 294 295 295 296 296 297 298 298 299 299 300 301 301 301 302 303 304 305 306 305 307 308 307 306 306 306 306 307 307 306 306 304 304 305 305
280 275 285 285 285 286 287 287 289 289 290 289 290 290 289 289 289 289 288 288 287 287 288 287 286 286 285 286 287 287 287 287 287 288 288 288 289 289 289 289 290 290 290 290 290 291 291 293 294 294 294 295 295 296 296 297 296 296 296 297 298 299 300 300 301 302 302 302 303 304 304 304 304 305 305 306 307 304 305 306 306 306 305 304 303 303 303
279 279 284 285 286 286 287 288 288 288 289 289 289 290 290 290 289 289 289 290 289 289 288 287 287 287 286 286 286 286 286 286 286 286 287 287 287 288 288 289 289 289 289 288 289 289 289 291 292 292 293 293 294 295 295 296 296 296 296 297 297 298 299 300 300 301 301 295 297 303 303 303 303 302 302 304 305 305 304 305 304 304 304 303 302 303 303
281 283 284 284 286 286 287 288 288 289 290 290 290 290 290 290 289 289 288 289 288 288 287 287 287 286 286 286 285 285 286 286 286 286 286 286 286 287 287 287 288 287 287 288 288 288 289 290 291 291 291 292 293 294 294 295 295 295 295 295 297 298 299 299 300 300 301 302 302 302 303 301 300 300 302 303 304 305 303 305 306 305 304 304 303 305 303
278 280 282 285 280 280 285 287 289 289 289 289 289 289 289 289 288 288 288 287 287 287 287 287 287 286 286 286 286 285 285 285 286 286 286 286 286 286 287 287 287 287 287 287 287 288 288 289 289 289 290 290 291 292 293 294 294 293 294 295 296 298 299 299 300 300 301 301 302 301 302 302 302 301 287 287 294 301 303 291 288 288 291 301 304 304 303
278 284 286 288 287 285 287 289 289 289 289 289 289 289 288 288 289 288 288 288 288 288 287 287 286 286 285 286 286 285 285 285 286 286 286 286 286 286 287 286 286 286 287 287 287 287 287 288 288 288 289 289 290 290 291 292 293 293 293 293 295 297 298 298 298 299 300 300 302 301 301 301 301 300 301 296 286 286 289 290 289 288 288 288 288 290 298
285 286 287 288 287 285 287 288 289 289 289 290 289 289 289 289 288 288 288 288 286 286 286 287 287 286 286 286 286 285 285 286 286 286 287 287 287 287 287 286 286 286 286 286 286 286 287 287 287 287 288 288 289 290 291 292 292 293 293 293 293 295 298 299 298 295 299 299 299 300 300 299 299 299 299 299 300 289 286 288 288 287 288 287 288 288 288
284 287 287 287 288 287 288 288 289 289 289 291 290 289 289 288 288 288 287 287 287 286 285 285 287 287 286 286 286 286 285 286 286 286 286 287 286 286 286 286 286 286 286 286 286 286 286 286 287 287 287 288 289 290 291 292 292 292 293 293 293 295 296 297 296 292 297 299 299 299 299 298 298 297 297 296 296 298 296 287 287 288 288 288 288 288 288
287 286 287 287 288 288 288 289 288 289 289 290 289 289 289 289 288 288 287 287 286 286 286 286 286 287 287 286 286 286 286 286 286 286 286 286 286 286 286 286 286 287 286 286 286 286 286 286 286 286 286 287 288 290 291 292 291 291 292 293 294 295 296 297 297 298 298 298 298 297 297 297 297 297 296 296 296 296 295 296 296 291 288 287 287 287 288
287 288 289 287 287 286 288 287 287 289 289 289 289 289 289 289 289 289 287 287 287 287 286 287 287 287 287 287 286 286 285 286 286 286 286 286 286 286 286 287 286 286 286 286 286 286 286 286 286 286 286 287 288 290 291 291 290 290 291 292 294 291 285 287 297 297 297 297 297 297 296 296 295 295 295 295 294 293 294 294 294 294 296 295 290 287 291
288 287 288 285 284 285 287 289 288 289 289 288 288 288 288 287 287 286 285 286 286 287 287 287 286 286 286 287 286 286 286 286 285 285 285 285 286 287 287 286 286 286 285 285 286 286 286 286 286 286 286 288 289 289 290 289 289 289 290 291 293 295 296 294 295 295 295 296 295 295 295 295 296 295 294 293 292 293 292 292 292 293 293 294 293 288 287
288 288 288 287 288 288 287 288 287 287 287 288 288 287 286 285 285 285 285 285 285 285 286 286 286 286 286 286 286 285 285 285 285 285 285 286 286 286 286 286 286 286 285 285 285 286 286 285 285 285 286 288 289 289 289 289 288 289 289 291 292 293 294 294 295 295 295 295 295 295 291 291 293 294 293 293 292 293 293 292 291 292 293 293 293 292 290
287 287 288 287 287 288 288 287 287 287 287 287 287 286 286 285 285 285 285 285 285 285 285 286 286 286 286 286 286 285 284 284 284 285 285 285 286 286 286 286 286 285 285 285 285 285 285 285 285 285 286 288 289 289 289 289 288 289 289 289 290 291 293 294 295 295 295 295 294 288 291 293 293 293 292 292 292 291 291 291 290 290 289 291 290 291 288
287 287 287 287 286 288 288 288 287 287 287 287 287 286 286 286 285 285 285 285 285 285 285 285 285 286 286 286 286 286 285 285 285 284 284 285 285 286 285 285 283 282 282 283 284 284 284 285 285 285 287 288 289 290 289 288 289 289 290 290 291 288 287 287 290 294 294 294 292 293 293 292 292 291 290 290 290 290 291 290 290 290 290 290 289 289 288
287 287 287 286 287 287 287 287 287 287 287 287 286 285 286 286 285 285 285 285 285 285 285 285 285 286 286 286 286 285 285 284 284 283 284 284 285 285 285 284 283 283 283 284 284 284 285 285 285 286 288 288 289 290 289 288 289 289 290 289 293 294 290 287 292 291 292 290 291 291 290 291 290 290 289 289 289 289 289 289 288 288 288 287 287 286 287
287 286 285 286 286 286 286 287 286 287 287 286 286 287 287 287 287 286 287 286 286 286 285 285 286 287 286 285 285 284 283 282 283 283 283 283 283 284 284 284 284 284 284 285 285 286 285 285 286 287 288 288 289 289 289 289 289 289 291 293 295 295 291 290 290 293 291 290 290 289 289 289 288 288 288 288 288 288 288 287 287 286 286 286 286 286 287
287 286 286 287 288 286 286 287 288 287 288 287 287 287 287 287 286 287 287 286 286 285 286 286 286 285 285 283 282 281 281 281 282 282 282 282 282 283 283 284 284 284 285 286 287 287 287 287 288 288 288 289 289 290 290 290 290 291 294 295 294 294 293 293 293 291 289 288 288 287 287 286 287 287 286 287 287 287 286 286 286 286 286 286 286 286 286
290 289 289 289 289 289 289 289 288 288 288 287 287 287 288 287 288 287 286 285 285 286 286 286 285 284 282 281 281 281 280 279 279 280 280 281 282 283 283 284 284 285 285 286 286 286 287 288 288 288 289 289 289 290 290 290 291 294 295 295 294 294 293 292 292 290 288 288 288 287 287 287 286 286 286 286 287 286 286 286 286 286 286 285 285 286 285
288 288 288 289 288 288 289 289 289 289 289 288 288 288 286 286 287 287 286 287 287 286 285 284 282 280 279 279 281 280 279 280 280 280 280 281 282 283 284 284 284 284 284 285 286 286 288 289 286 286 289 289 290 290 290 292 294 295 295 295 294 292 291 291 290 289 288 288 287 287 287 286 286 286 286 286 287 287 286 286 286 286 286 286 286 285 285
288 290 290 290 289 289 289 288 289 289 289 288 288 287 287 288 287 287 287 286 286 285 284 282 281 279 278 277 278 279 280 281 281 280 280 281 282 283 284 284 283 283 283 283 285 286 288 289 285 285 289 290 290 291 292 288 294 295 295 294 293 292 291 290 289 289 288 288 288 288 287 287 287 286 286 287 287 287 286 286 286 287 286 286 286 287 287
288 289 290 290 289 289 289 289 288 288 288 287 288 287 288 288 288 287 287 286 285 284 282 281 280 280 280 280 280 280 280 281 281 280 280 281 282 282 284 283 282 282 282 282 284 286 288 288 285 289 291 291 292 292 290 287 289 294 294 293 292 291 290 289 288 288 288 289 288 289 288 288 287 287 287 287 287 287 287 287 286 286 285 286 286 286 286
287 287 288 288 288 288 288 287 287 287 288 288 289 289 288 287 287 286 286 286 285 284 283 283 282 282 283 283 282 283 282 282 281 280 280 281 282 282 283 283 282 282 283 284 285 286 287 289 292 292 292 292 292 291 289 287 288 293 292 292 291 290 288 287 287 287 287 287 288 288 289 288 287 287 287 287 287 286 286 286 285 286 286 286 286 286 286
289 289 289 288 288 288 288 288 286 285 286 288 288 289 289 288 288 287 286 286 286 284 285 284 283 283 282 282 282 282 283 284 283 281 280 281 282 282 284 284 284 284 284 284 286 286 286 286 289 290 290 291 292 293 290 289 289 291 291 290 289 288 287 288 288 288 288 289 288 287 289 288 287 286 286 286 287 286 286 286 286 286 286 286 287 286 286
289 289 288 289 289 288 288 288 287 288 288 287 288 289 289 288 288 286 286 286 286 286 285 284 283 283 282 282 282 282 283 283 284 284 283 283 282 282 282 282 283 283 284 285 286 286 286 286 287 288 289 290 291 289 292 288 290 290 290 289 289 288 287 288 288 288 288 288 288 288 288 288 287 286 286 286 286 287 287 287 287 287 287 287 287 287 287
288 288 288 288 288 288 288 288 287 287 287 288 287 287 288 287 287 287 287 286 286 286 285 284 281 283 283 282 283 283 283 283 284 284 284 282 281 281 282 283 283 283 283 284 285 286 287 287 287 286 288 289 288 286 286 289 290 290 290 289 289 288 288 288 287 287 287 287 287 287 287 287 286 286 286 286 286 287 287 287 286 286 287 287 287 286 286
287 287 287 288 288 288 288 287 288 288 289 289 288 288 288 287 287 286 286 286 285 285 285 284 283 281 282 283 283 282 283 283 284 284 284 284 283 283 282 283 283 283 283 284 285 287 286 287 287 287 286 287 287 286 286 289 289 288 288 288 288 288 287 287 287 287 287 287 287 287 287 287 286 285 285 285 285 286 286 286 285 285 286 286 286 286 286
288 287 288 288 288 288 288 288 288 287 287 289 290 289 288 288 288 287 287 287 286 285 285 284 283 283 283 283 282 282 282 283 283 283 283 283 284 285 285 284 284 283 282 284 285 286 286 287 287 286 285 285 285 286 289 289 288 287 287 287 287 287 288 287 287 287 287 286 286 286 285 285 285 285 285 285 285 286 286 286 286 286 286 286 286 286 286
288 288 288 288 289 288 288 288 288 288 289 290 289 289 289 289 288 288 287 287 287 286 285 285 284 283 284 283 283 283 283 283 283 283 282 281 281 282 285 283 285 284 283 282 285 285 286 285 285 285 285 285 285 286 288 288 288 287 287 286 286 286 286 286 286 286 286 286 286 286 286 286 286 285 286 285 284 285 285 285 285 286 286 286 285 285 285
288 288 288 284 287 288 289 289 290 290 289 288 289 289 289 289 289 288 287 287 287 287 287 286 285 285 284 284 284 283 283 283 284 284 284 283 282 283 284 282 284 282 282 282 285 285 285 283 283 284 285 285 286 288 288 288 289 289 289 288 287 287 286 286 285 285 285 285 286 286 285 285 285 286 286 286 285 284 284 284 284 285 285 285 285 284 284
287 287 287 287 288 289 289 289 288 288 288 287 287 289 290 289 288 288 288 288 288 288 287 286 286 286 285 285 284 283 283 283 283 284 284 284 284 283 282 281 281 281 282 284 284 284 283 283 282 282 283 284 285 288 288 288 288 288 288 288 287 287 287 287 287 287 287 286 285 285 284 285 285 285 285 284 284 284 284 283 283 283 283 283 283 283 283
287 287 288 288 288 288 288 287 287 287 287 288 289 289 291 290 289 288 288 288 287 287 287 287 286 286 285 285 285 285 284 284 282 282 284 285 285 285 285 285 283 280 281 282 281 281 280 280 280 281 281 283 286 287 287 287 287 287 287 287 287 287 287 287 287 286 286 286 286 286 286 285 285 285 284 284 284 284 283 283 282 282 282 282 282 282 282
287 288 288 288 288 287 287 287 287 287 288 289 288 289 290 289 288 287 287 287 287 287 287 287 286 286 286 285 285 285 285 285 284 283 285 285 284 284 284 282 280 280 283 284 284 284 280 280 280 280 281 283 287 287 287 286 286 285 285 286 286 286 286 286 287 286 286 286 286 285 285 285 285 284 284 283 283 283 283 282 282 282 282 282 282 282 282
287 287 287 288 288 287 288 288 288 289 290 289 289 289 290 289 288 289 289 288 288 286 287 287 287 287 286 285 285 285 285 285 284 285 285 285 285 284 284 284 284 280 281 284 284 283 280 280 280 281 283 286 286 286 286 286 285 285 285 285 285 285 284 284 282 283 285 285 285 285 285 284 284 283 283 283 282 282 282 282 281 280 279 281 281 282 282
287 287 288 288 289 290 290 290 290 290 290 290 290 289 288 288 289 289 291 290 288 286 287 287 286 287 286 286 286 286 285 285 285 283 284 285 284 283 282 283 283 282 283 283 284 284 284 285 284 283 283 284 285 285 285 285 284 284 283 284 284 284 284 284 285 285 285 285 285 285 285 284 284 284 283 282 281 281 281 281 281 281 281 281 281 281 281
288 289 289 289 288 289 289 289 289 289 290 290 290 289 288 288 289 289 290 284 288 289 289 288 286 286 286 286 286 286 286 285 284 284 283 284 284 284 283 281 283 283 284 284 284 284 284 282 280 280 281 284 284 283 280 280 283 283 283 282 282 283 282 283 285 284 284 284 284 284 284 284 284 283 282 282 281 280 280 280 280 280 280 280 279 279 279
Wind_Speed
8 8 4 4 5 5 4 5 5 5 7 3 3 1 3 2 1 0 4 6 5 2 4 6 5 5 4 5 5 4 3 3 3 6 8 8 9 9 10 9 9 9 9 9 9 10 9 9 9 7 5 4 3 3 3 2 2 2 2 3 3 3 4 4 5 5 6 6 7 8 7 7 7 6 5 5 5 5 5 4 3 3 3 3 2 2 3
7 7 6 6 6 2 4 9 8 7 7 6 5 6 3 3 3 3 6 9 7 3 4 5 4 3 2 3 2 5 7 5 6 9 10 10 9 9 9 9 9 9 9 9 9 9 9 10 9 8 7 6 5 4 3 3 2 2 2 2 3 3 3 4 4 5 6 6 6 6 6 6 6 5 5 5 5 5 5 3 3 3 3 2 1 1 1
3 5 3 6 7 5 5 5 6 5 4 5 7 4 3 4 8 6 5 9 6 4 4 4 4 2 1 7 11 10 7 6 8 11 10 10 9 9 9 9 9 9 9 9 9 10 9 9 8 7 7 7 7 6 4 3 2 1 1 3 3 3 3 3 3 4 5 5 4 4 4 4 3 4 5 5 5 4 4 3 3 3 3 3 2 1 1
0 2 5 5 7 8 5 3 5 6 6 4 5 2 4 3 4 5 4 4 3 3 4 6 6 9 11 11 10 10 8 9 11 12 12 11 10 10 10 10 10 11 11 11 10 10 9 9 9 8 7 7 8 7 5 4 3 2 1 2 2 1 1 2 3 4 4 4 3 2 1 1 2 3 4 4 4 3 3 4 4 4 4 3 3 3 2
2 2 3 6 6 4 3 3 1 3 2 3 4 3 5 4 4 2 2 3 5 5 2 8 10 11 11 12 10 9 11 11 12 13 12 11 11 11 11 11 12 11 11 10 10 9 9 8 8 8 7 8 8 6 7 5 3 4 4 3 3 4 2 2 2 2 3 3 3 2 2 2 3 3 4 5 5 6 5 4 4 5 4 4 4 4 4
2 4 5 1 4 3 3 3 5 3 3 4 4 3 4 5 2 1 3 8 6 6 6 10 10 12 10 9 9 8 7 8 12 13 12 11 10 10 11 11 11 10 9 9 9 9 8 8 7 6 7 8 6 5 6 6 6 6 6 6 6 5 5 4 3 3 3 3 3 3 3 3 3 3 3 3 3 3 4 4 4 4 4 5 4 4 3
3 4 5 4 4 4 4 4 2 5 4 10 13 9 8 7 7 10 12 11 10 8 10 11 12 12 10 11 12 12 11 9 10 12 12 11 10 9 9 10 10 9 8 9 9 10 10 9 8 7 8 7 6 8 7 8 6 7 7 8 7 6 6 6 5 4 5 5 5 4 4 4 4 4 4 4 4 3 2 3 3 4 4 4 3 3 3
3 2 3 4 2 3 4 2 4 4 3 2 6 11 10 8 6 4 12 10 10 9 9 8 8 11 11 12 12 11 9 9 8 10 10 11 11 11 8 9 8 8 9 9 8 7 6 6 6 7 7 6 7 6 6 7 6 5 6 8 8 8 8 7 6 5 5 5 5 5 5 4 5 4 3 3 4 3 3 3 3 3 3 3 3 3 2
3 1 1 1 4 2 4 3 0 3 1 3 2 3 4 5 4 2 7 7 5 6 4 3 3 1 4 12 10 10 9 9 9 9 9 8 8 8 7 8 7 5 6 6 6 5 7 8 7 7 6 5 5 5 6 4 5 6 6 7 7 6 7 7 7 6 5 6 5 4 3 4 4 4 4 3 2 2 4 4 4 3 3 2 2 2 3
2 4 1 0 1 2 5 3 3 0 1 2 3 3 4 3 4 2 0 5 3 2 3 4 2 4 3 9 7 7 8 7 7 7 7 6 7 7 6 7 7 8 6 6 6 5 6 7 7 5 5 4 3 5 6 6 6 4 3 4 3 4 4 3 4 5 6 7 7 5 4 4 4 3 3 3 4 3 6 6 5 4 4 3 2 2 2
2 2 4 3 5 1 3 2 4 4 2 3 3 1 4 2 2 2 2 5 2 2 0 0 2 2 3 5 4 4 6 6 6 7 8 8 7 8 7 7 8 8 7 6 7 8 9 10 9 7 6 6 5 4 4 4 4 5 4 1 2 2 3 2 2 2 3 5 7 7 7 5 5 5 4 3 2 1 2 3 4 3 3 4 3 2 2
2 3 4 4 2 2 1 4 4 4 1 4 2 3 3 4 2 1 2 5 4 3 2 2 5 1 4 5 3 5 5 5 5 7 7 8 9 9 9 9 7 6 5 7 9 10 10 9 7 7 6 5 7 6 5 4 4 4 4 5 6 5 4 2 2 2 2 3 5 6 6 5 5 5 4 3 3 2 1 2 3 2 2 2 3 3 2
1 2 1 2 1 1 2 4 6 4 3 2 5 4 5 3 2 2 4 7 6 6 6 4 6 6 6 5 3 3 4 5 7 7 7 6 7 8 9 8 8 8 8 8 8 7 6 7 7 7 6 5 6 5 4 5 6 7 7 6 7 7 6 6 4 5 4 4 5 5 5 6 5 4 4 4 4 3 3 1 2 2 2 2 2 2 2
1 0 1 1 1 0 3 4 5 3 3 5 3 4 1 4 5 4 4 8 6 7 9 6 6 5 4 4 3 5 6 6 6 6 6 7 6 6 5 6 8 7 6 7 8 9 8 8 8 8 8 8 7 6 5 5 6 5 6 6 6 6 6 6 6 5 6 5 4 3 4 4 5 4 2 3 4 3 3 3 3 3 3 2 3 2 2
1 0 2 1 2 2 4 7 2 2 1 2 5 6 3 2 5 6 6 6 5 5 6 6 5 4 5 5 5 4 4 5 6 6 7 8 8 9 9 9 10 9 7 8 8 8 7 8 7 7 8 8 8 8 7 8 7 7 6 6 6 6 5 6 6 7 6 6 5 3 4 6 6 6 4 4 4 4 5 5 5 5 4 4 4 3 3
0 1 1 1 3 3 6 3 1 2 6 6 3 5 6 4 3 4 4 5 4 4 4 4 4 4 4 4 5 5 5 5 5 5 6 6 7 7 7 7 8 8 7 7 7 8 8 7 7 6 6 7 7 8 9 8 8 8 7 7 7 6 5 5 5 6 7 7 6 5 6 6 6 6 6 5 5 5 6 6 6 5 4 4 4 4 4
2 2 3 3 1 3 5 5 9 7 6 5 4 5 4 4 2 1 3 3 3 3 3 3 3 3 4 4 4 4 5 5 6 6 6 6 6 6 7 7 6 6 7 8 8 8 7 8 7 6 5 5 6 7 8 9 9 9 9 9 8 8 7 7 6 5 5 6 6 6 6 6 7 6 6 6 6 5 5 5 6 6 5 5 5 5 4
7 8 6 4 0 2 4 5 4 5 4 3 2 3 3 1 2 1 2 2 2 3 2 3 3 4 3 4 5 4 5 5 5 5 6 7 7 7 8 8 8 9 8 8 8 8 8 7 7 6 6 5 7 8 7 7 7 8 8 9 9 9 8 7 7 6 6 6 6 6 5 5 6 6 7 7 7 6 5 5 6 6 5 4 4 4 4
0 2 2 2 3 3 2 2 2 2 2 1 0 1 1 2 2 3 3 3 4 3 4 4 2 2 2 3 2 3 4 5 7 8 8 8 8 8 9 8 9 9 9 9 9 10 10 8 7 7 8 8 7 7 8 8 7 7 7 8 8 8 8 8 6 5 6 6 5 5 5 4 4 4 4 5 5 5 5 5 5 4 4 4 4 4 5
1 3 6 2 1 1 1 1 3 3 2 3 3 2 3 4 4 4 3 2 4 2 3 3 2 2 1 2 4 4 4 5 5 6 6 7 7 7 7 8 8 9 9 9 10 10 10 9 8 8 8 9 9 9 8 8 8 8 7 7 8 9 9 8 7 6 5 5 6 5 4 5 5 4 3 3 5 5 6 6 5 5 4 4 5 5 5
4 5 2 1 3 1 3 2 2 1 1 2 3 4 4 4 5 5 5 5 3 2 2 1 2 4 4 4 5 6 6 6 5 6 7 7 7 8 8 8 8 9 10 10 11 11 10 9 8 9 9 9 9 9 9 8 8 9 9 9 8 9 9 8 7 6 5 5 4 4 2 2 1 2 0 2 2 1 2 1 2 4 5 5 5 4 5
3 3 6 8 4 2 6 6 4 3 1 2 3 3 4 4 4 3 3 2 1 1 1 2 3 5 5 5 4 6 6 6 7 8 8 8 9 9 9 8 9 10 11 11 12 12 11 11 11 10 10 10 9 9 9 7 7 8 9 9 9 8 7 7 7 6 5 4 3 3 2 1 1 1 1 1 2 2 1 2 2 4 4 3 1 1 3
2 3 6 7 2 2 1 4 5 3 3 3 4 4 4 4 3 2 1 1 1 1 1 2 3 4 5 7 6 6 6 7 7 7 9 10 10 10 11 11 12 12 13 12 12 13 12 11 11 12 11 11 10 10 10 9 7 8 8 8 8 8 7 7 6 5 5 4 3 2 2 1 1 2 3 3 5 3 1 1 0 1 3 5 6 5 4
3 1 5 6 0 2 3 3 5 4 3 3 4 4 3 3 2 2 0 1 3 3 2 2 2 3 5 5 5 6 7 8 8 9 9 10 10 11 11 12 13 14 14 13 13 13 11 11 11 11 12 12 12 11 10 9 7 7 7 7 8 8 7 6 4 4 4 4 3 3 2 3 3 3 3 4 3 6 5 3 2 4 5 5 6 7 8
4 1 3 3 3 4 3 3 3 2 2 3 4 4 3 2 1 2 2 1 0 2 3 4 4 2 4 6 6 7 9 10 10 11 12 11 11 11 13 14 14 14 13 12 12 12 12 12 12 12 12 12 11 11 10 9 8 7 7 7 9 10 8 6 4 2 3 2 2 2 3 3 2 2 3 4 5 4 4 6 4 2 2 5 7 9 10
2 4 5 4 4 4 3 3 3 2 3 3 4 2 3 3 2 1 1 1 1 1 3 4 6 5 3 6 7 8 9 10 11 11 10 11 10 12 13 14 14 13 13 13 13 13 13 14 13 13 13 12 11 11 9 8 7 7 7 8 9 8 7 5 3 2 2 2 2 1 1 1 1 2 2 3 4 4 4 3 3 5 7 5 1 3 8
4 5 8 6 4 2 2 2 0 5 4 3 3 4 3 1 1 0 1 1 2 3 4 5 5 6 5 5 7 8 9 10 11 10 9 10 13 13 13 13 14 14 14 13 13 13 13 13 13 12 13 12 11 10 10 9 8 7 8 8 7 6 7 6 3 2 2 2 2 2 2 2 3 3 4 4 4 4 4 4 4 4 4 3 5 4 3
3 1 2 0 0 1 2 4 1 5 5 5 5 4 2 1 1 1 2 2 2 3 3 4 4 5 6 5 5 8 8 9 9 10 10 11 12 12 13 13 14 14 13 13 13 14 13 12 12 11 11 11 10 10 10 9 7 7 8 8 6 5 3 3 1 1 1 0 0 1 2 2 2 3 3 5 5 6 6 6 6 5 4 2 1 5 1
2 1 1 2 2 3 3 4 5 4 3 1 0 2 2 1 1 2 3 2 2 3 3 3 3 4 5 7 6 7 8 9 9 11 11 12 13 12 12 13 13 13 13 14 14 13 12 12 12 11 11 10 9 9 9 9 7 7 7 7 5 4 2 1 2 1 0 0 1 1 2 2 3 4 5 5 6 6 6 6 5 6 6 4 2 3 4
3 2 3 3 3 6 7 5 6 5 4 4 4 2 2 2 2 2 2 2 1 3 4 4 5 6 5 6 6 6 8 9 9 10 10 12 12 11 11 12 13 13 12 12 12 12 11 11 11 11 10 9 8 8 8 7 7 7 6 6 4 4 3 2 2 1 0 1 2 2 3 3 4 6 6 6 6 6 6 5 4 4 4 5 4 3 3
4 3 3 3 4 4 5 5 6 6 5 4 4 3 3 3 3 3 3 2 2 3 4 5 6 7 7 6 6 6 6 7 8 9 10 11 11 11 11 11 10 11 12 13 13 12 11 11 10 10 9 9 8 7 6 6 6 5 5 4 4 4 2 2 1 2 2 3 4 4 5 6 6 6 7 6 6 6 5 5 5 5 4 5 5 5 6
6 4 4 3 2 3 2 2 4 5 5 3 4 4 4 3 4 4 3 3 4 4 6 6 7 8 7 6 6 6 6 7 8 8 8 8 10 11 11 11 11 12 13 13 12 11 10 10 10 9 8 7 7 6 6 6 5 5 5 4 3 3 2 2 2 3 4 3 4 5 6 6 7 7 6 6 6 5 5 5 5 5 4 4 4 4 5
4 3 2 3 3 3 4 4 5 6 5 5 4 3 2 3 3 4 4 4 5 5 5 6 6 6 6 6 5 4 5 8 8 7 7 11 11 11 10 9 9 11 12 11 11 10 8 8 8 7 6 6 6 6 6 6 5 4 4 3 3 2 3 2 4 2 4 4 3 3 4 5 5 5 5 5 5 4 5 5 5 5 5 6 6 5 5
4 2 1 1 3 3 5 5 6 5 3 2 2 3 3 3 2 4 4 4 4 5 6 6 6 5 5 5 4 3 5 6 6 7 10 11 11 11 10 9 9 9 10 8 8 7 6 6 5 4 4 4 5 5 5 5 4 4 3 3 3 3 4 2 3 4 3 2 2 2 3 1 2 2 2 3 4 4 5 5 5 7 8 7 6 5 6
1 2 1 1 2 3 2 3 3 4 3 2 3 4 3 2 3 3 3 4 5 5 6 6 4 3 4 3 3 4 5 5 7 8 10 10 11 11 11 10 10 9 9 6 7 8 7 5 2 2 2 3 4 4 4 3 3 3 3 4 5 4 3 2 2 3 2 2 3 4 3 4 4 5 5 6 6 5 5 6 6 6 8 7 6 5 5
3 2 1 1 2 2 3 3 2 2 3 2 2 1 1 2 2 3 4 5 4 4 3 3 3 2 2 3 3 4 5 6 6 8 9 10 11 10 11 10 11 11 10 8 8 10 9 6 5 3 2 2 3 3 3 3 4 4 5 5 5 4 4 3 3 3 3 3 3 3 3 4 5 5 5 6 6 7 7 6 7 7 6 5 5 5 5
3 3 2 2 1 3 3 2 3 3 3 3 2 2 2 3 3 3 3 3 3 2 2 2 2 3 3 2 3 4 4 4 5 6 7 8 8 9 9 9 10 11 10 10 11 10 7 5 4 2 2 3 2 2 3 4 5 5 5 6 6 5 5 4 3 3 4 3 3 3 3 4 5 5 4 6 7 7 6 6 4 5 5 4 4 4 5
4 3 3 3 3 3 3 2 2 2 2 2 2 3 3 2 2 3 3 3 2 2 1 2 2 2 2 2 1 3 5 5 5 6 7 7 8 9 8 8 9 9 9 9 10 8 5 4 2 1 2 2 2 3 4 4 6 6 5 6 6 5 5 4 5 4 4 4 3 4 4 5 5 6 6 6 6 6 4 5 4 5 4 4 4 3 3
3 2 1 1 2 2 2 1 2 2 3 4 3 2 2 2 2 2 3 3 1 1 1 1 1 1 1 2 3 2 3 4 5 6 6 7 7 7 6 6 7 7 7 8 7 5 6 6 5 6 6 5 5 5 5 6 8 6 6 6 6 5 4 4 4 5 4 4 3 3 3 4 4 5 4 6 6 6 6 6 5 5 5 4 4 4 5
4 4 4 3 3 3 2 2 2 2 3 2 2 4 2 1 2 2 2 2 1 1 2 1 2 2 3 3 3 3 4 5 4 4 6 6 5 6 5 4 9 10 11 12 8 6 7 8 7 6 6 5 5 6 6 7 7 6 6 6 5 5 4 4 5 5 5 5 5 6 6 5 4 4 5 5 5 6 6 6 5 5 5 6 6 6 6
4 3 3 3 3 3 4 4 3 3 3 3 3 4 3 3 2 2 2 2 1 1 1 1 2 2 2 2 3 3 3 4 4 5 5 5 6 6 6 8 10 8 10 9 7 6 6 7 6 6 6 6 6 6 6 7 6 6 6 6 5 5 5 5 5 5 5 5 4 4 4 5 5 5 5 6 6 5 6 6 6 6 6 7 8 8 7
4 3 3 3 3 4 4 3 1 2 4 4 4 4 4 3 3 4 2 1 1 1 1 0 0 2 1 1 2 2 2 3 4 4 5 5 5 5 6 7 8 8 13 11 8 7 6 6 6 6 6 6 6 7 7 7 6 6 6 6 6 6 5 5 5 5 5 5 5 5 5 5 5 6 6 6 6 6 7 7 7 7 7 7 8 8 7
5 6 6 5 5 4 4 4 4 4 4 3 3 3 3 2 3 3 3 2 2 1 1 1 1 1 1 1 1 2 2 2 3 3 3 3 2 3 4 5 6 6 12 7 7 6 6 6 6 5 6 6 6 8 9 8 7 6 7 7 6 6 5 5 5 5 5 5 5 5 5 5 5 5 6 6 6 6 7 7 7 7 7 7 8 8 7
5 5 5 5 5 5 4 4 3 2 3 5 3 2 3 3 3 3 3 2 2 3 2 2 2 2 1 1 1 1 1 2 2 2 2 2 2 4 5 5 5 7 10 7 6 6 6 6 5 5 8 9 9 8 8 7 7 6 5 5 5 5 6 5 6 5 5 5 5 5 5 5 4 4 5 6 6 6 7 7 7 7 7 7 7 7 7
5 5 6 6 5 3 4 4 5 6 5 3 2 2 3 3 3 3 3 3 3 2 3 3 3 3 2 1 0 1 1 1 2 3 2 3 3 4 6 7 6 6 7 8 5 5 6 6 6 7 7 8 8 8 7 7 7 7 7 5 5 5 5 6 5 5 6 6 5 5 5 5 5 5 7 7 7 6 7 7 7 7 7 7 7 7 6
5 5 5 5 5 7 7 7 6 3 3 3 4 4 4 4 4 3 3 4 4 3 3 3 4 4 4 3 2 1 1 0 1 1 1 2 2 3 4 5 4 5 6 6 5 5 5 7 8 7 8 7 7 8 7 7 7 6 7 6 7 7 7 6 5 4 4 5 5 5 5 6 6 7 6 6 6 6 7 6 7 6 6 6 6 6 6
5 4 6 7 7 6 5 4 3 3 3 3 5 6 4 3 3 3 4 4 4 3 3 3 4 4 5 5 4 2 2 1 1 1 0 1 0 1 2 3 4 6 5 5 5 5 5 5 6 8 8 8 6 5 5 5 5 5 5 6 6 6 6 6 6 5 6 6 7 8 8 7 7 7 7 7 6 6 6 5 6 6 6 7 7 7 7
5 6 6 6 6 4 4 4 5 5 6 7 6 5 5 3 3 3 2 3 3 3 3 3 3 4 5 5 4 3 1 1 0 1 1 1 1 2 2 3 3 4 3 4 5 7 8 7 7 7 7 6 6 6 6 5 5 5 6 6 6 6 6 4 5 6 6 7 7 8 7 8 8 7 7 7 7 6 6 6 6 6 6 6 6 6 6
6 6 4 4 4 5 6 6 6 6 6 6 6 6 5 4 3 3 3 3 3 3 4 4 4 4 4 5 5 4 3 2 1 0 2 1 1 1 2 2 1 2 3 3 4 4 6 7 7 6 7 6 5 5 5 6 6 6 6 5 5 4 5 4 4 4 6 6 6 6 7 7 7 6 6 6 7 6 6 6 6 6 6 6 7 7 7
4 4 4 5 5 5 6 5 6 7 6 5 6 6 5 3 5 5 4 4 4 3 3 3 4 4 4 4 4 4 4 4 3 1 2 3 3 2 2 2 3 3 3 3 3 3 4 5 6 6 5 4 5 5 5 5 6 5 4 5 5 4 5 5 6 6 6 6 6 6 5 5 5 6 6 5 5 6 6 6 6 6 8 6 5 6 6
4 5 5 5 5 5 6 7 6 5 5 5 6 5 5 6 7 6 5 4 3 3 4 4 4 4 4 4 4 4 4 4 4 4 4 3 3 3 2 3 2 2 2 2 2 2 2 3 3 3 4 4 4 4 4 4 4 4 4 3 3 4 4 4 5 4 4 4 4 4 5 5 5 5 5 5 5 5 5 4 5 5 5 5 5 4 4
4 5 4 3 3 4 4 5 5 5 5 5 4 5 6 6 6 6 5 5 5 5 5 4 4 5 4 4 5 5 5 5 5 5 4 4 4 4 4 3 3 3 2 2 2 3 2 3 4 5 4 3 3 4 4 4 4 3 3 3 3 3 3 3 3 3 3 3 4 4 4 4 4 5 5 5 5 5 5 5 4 4 4 4 4 4 4
Wind_Direction
48 35 358 72 70 41 63 52 16 4 331 321 85 57 78 201 207 212 136 154 119 49 4 357 7 359 357 2 21 17 17 22 72 96 83 73 64 57 53 47 46 44 47 42 38 36 33 34 34 29 30 35 54 102 95 83 73 91 129 136 119 117 125 133 127 124 131 139 157 169 164 161 166 162 153 141 136 139 150 164 167 147 164 185 176 141 116
63 30 24 27 70 109 65 36 27 15 16 31 62 89 45 30 56 57 115 94 83 21 349 358 358 3 36 51 44 60 56 49 79 81 74 67 61 57 54 51 51 52 51 51 48 45 41 37 32 33 31 34 35 45 58 50 54 54 122 134 133 126 130 129 125 129 134 145 164 168 160 177 170 153 151 150 152 156 163 167 138 126 137 150 155 150 141
24 9 20 54 43 50 41 39 37 32 23 43 33 64 55 97 85 76 87 91 80 41 12 29 34 354 50 64 53 52 53 58 74 76 70 64 61 60 59 56 56 58 55 51 47 42 39 38 36 33 32 38 46 49 36 40 51 25 152 137 149 162 157 134 134 132 144 157 168 189 172 170 147 144 147 149 154 153 145 141 137 138 141 142 142 138 147
197 5 48 49 53 55 54 358 12 15 21 13 6 23 347 323 130 139 130 94 93 77 70 73 59 61 55 54 51 51 47 56 68 72 69 65 62 61 62 62 59 56 55 51 49 44 38 36 40 37 35 38 40 37 37 34 12 12 62 86 109 100 85 116 139 142 142 150 171 187 206 138 120 114 121 136 141 144 153 158 151 150 148 146 147 141 124
228 40 79 92 107 59 343 238 82 69 33 95 116 60 25 16 340 134 178 108 97 125 133 82 59 59 58 51 38 51 57 57 64 67 67 65 63 58 57 59 58 56 56 55 52 48 47 39 42 41 49 52 40 24 27 13 27 46 57 68 87 84 82 106 108 100 136 163 161 164 154 118 127 133 138 145 152 157 154 145 138 131 117 117 114 106 106
144 115 120 142 146 195 210 28 279 238 133 177 123 47 9 17 323 24 48 110 116 104 97 89 80 68 57 61 56 42 46 63 67 66 62 61 59 57 55 54 54 52 52 52 49 48 46 39 35 36 53 69 72 68 61 50 43 36 48 44 42 47 58 62 73 98 107 110 105 92 102 116 127 127 128 114 113 103 111 123 121 114 117 115 117 117 111
140 120 139 149 205 212 35 328 16 209 160 110 99 85 50 44 80 105 100 101 103 99 96 96 93 91 83 67 61 52 44 48 62 67 65 58 55 52 48 43 38 35 35 40 39 33 27 21 16 22 35 28 46 55 54 69 69 72 59 57 49 44 43 35 48 70 83 83 84 77 73 74 79 80 80 84 82 84 100 107 118 119 119 120 109 124 131
76 118 167 174 213 14 310 46 79 68 93 97 95 69 46 30 19 53 103 107 113 113 109 105 101 96 95 76 58 49 43 39 48 60 59 56 56 53 44 49 39 33 28 26 29 28 11 16 15 20 21 11 31 37 39 44 45 58 72 72 66 60 55 55 47 31 55 77 72 71 74 79 86 87 80 83 101 94 92 85 74 87 77 77 101 99 93
162 133 152 334 332 267 132 173 138 22 59 53 8 100 44 14 355 9 118 126 129 132 134 126 154 190 103 74 61 41 38 35 43 55 59 57 60 60 52 54 52 38 42 47 37 42 42 30 26 6 351 11 17 21 30 20 34 54 73 84 82 79 90 90 98 96 82 70 58 52 65 92 98 105 113 112 108 129 120 123 121 112 101 94 90 94 100
123 138 104 352 35 244 192 116 85 267 341 351 260 96 103 53 28 355 338 116 121 144 153 180 200 271 74 72 65 31 28 31 37 49 52 57 60 57 53 51 52 42 32 32 39 39 49 45 26 357 348 1 8 21 20 18 25 33 65 87 90 102 106 123 119 131 140 138 138 134 136 136 136 139 143 151 153 176 153 147 139 134 139 127 114 93 89
124 154 169 192 191 231 40 48 331 346 331 229 186 200 126 77 3 30 108 99 78 65 124 219 153 211 106 92 73 33 10 24 24 34 40 36 41 46 44 38 32 30 24 17 21 32 35 31 14 4 352 351 13 25 29 19 11 7 358 301 194 204 199 207 174 157 164 155 150 152 155 161 159 151 153 142 125 150 129 132 128 143 147 134 127 113 84
168 152 184 212 193 86 70 322 312 340 11 160 189 191 178 115 7 44 61 71 56 35 19 34 74 7 131 116 77 21 5 11 28 29 29 27 26 29 28 30 19 17 19 21 27 25 20 8 355 1 1 16 23 13 6 354 344 335 334 335 336 333 328 317 262 260 232 190 168 165 162 160 167 160 149 148 156 151 123 138 141 136 140 127 127 107 99
97 142 88 42 187 237 277 301 313 343 187 211 190 216 105 139 98 81 68 65 49 42 54 33 84 45 46 58 52 17 9 23 34 31 31 33 29 27 25 22 9 16 19 21 18 16 13 356 356 356 354 11 26 19 359 355 351 351 346 336 326 320 311 299 274 236 227 234 192 180 172 170 169 164 168 158 149 147 142 119 103 106 102 105 99 96 83
96 55 120 89 33 12 335 308 304 291 166 180 209 72 292 110 108 77 63 72 53 54 55 52 62 64 56 61 43 29 27 21 18 18 18 23 26 27 22 25 22 10 13 13 10 7 5 2 2 1 356 356 358 1 354 4 6 345 339 336 323 307 296 288 281 259 227 230 249 203 176 161 165 177 167 155 160 146 126 135 140 142 152 151 150 135 140
123 121 95 156 200 97 353 318 289 16 254 50 100 127 98 113 94 94 78 71 71 61 74 61 57 59 50 42 28 18 31 22 18 12 16 17 14 9 8 9 14 7 2 6 1 356 353 355 360 1 356 351 348 343 336 344 348 338 332 328 325 315 304 290 271 263 253 228 224 234 184 179 181 178 174 176 170 165 158 162 166 165 171 170 171 166 163
296 126 154 79 21 337 341 296 79 50 67 112 120 111 111 106 101 87 91 69 69 70 64 64 53 64 41 29 22 15 24 14 12 16 16 14 10 7 6 3 3 359 354 352 348 346 346 349 352 358 359 345 338 333 323 337 336 331 329 330 325 317 305 291 280 266 254 242 224 221 212 191 197 181 176 182 176 177 177 174 173 172 174 174 183 186 190
14 39 101 145 308 354 12 59 90 91 91 94 86 79 92 108 79 78 78 76 68 45 48 52 47 41 39 13 23 17 359 352 6 3 360 2 0 357 353 349 351 347 344 337 333 332 336 341 343 347 351 339 326 317 324 333 331 330 328 326 322 318 315 312 298 281 264 249 239 223 210 198 197 193 177 175 179 179 181 185 183 185 177 179 193 199 196
97 60 62 97 140 356 40 36 32 82 84 58 77 97 99 77 82 79 96 100 91 67 20 37 37 46 12 7 8 2 355 344 342 343 343 348 348 345 341 339 343 333 323 318 316 315 318 325 329 332 333 332 321 317 321 323 324 325 321 318 316 313 311 305 303 300 281 258 235 229 227 224 218 201 186 184 193 175 188 188 190 197 183 184 196 199 209
205 102 169 145 126 149 142 85 73 52 57 47 61 103 96 106 99 87 63 70 76 74 68 65 44 26 44 351 346 338 327 338 338 339 338 340 338 334 329 328 326 318 318 311 310 310 307 309 310 312 315 315 313 317 323 325 326 320 315 309 304 302 302 303 300 294 281 269 246 212 208 215 226 225 213 195 192 179 189 188 191 195 186 184 198 206 224
61 114 156 166 60 262 283 218 169 158 152 102 70 65 72 90 72 66 62 86 78 64 62 51 19 352 17 345 341 333 329 326 325 324 325 321 322 318 315 311 311 306 302 300 300 301 299 301 301 301 299 298 304 309 313 318 323 320 307 304 301 298 297 296 292 287 279 269 265 242 208 199 195 193 202 209 201 194 193 193 193 196 197 200 211 218 230
91 81 91 119 150 185 193 200 249 345 100 105 79 60 69 68 71 65 55 48 62 54 55 41 353 332 352 1 345 334 329 327 329 329 326 325 321 320 316 314 307 303 302 298 295 294 293 294 294 293 292 295 298 301 303 310 318 317 312 305 295 286 288 288 283 276 270 269 251 253 221 215 11 3 303 198 229 221 11 333 262 232 216 218 222 228 243
146 174 169 169 164 186 194 212 200 158 119 104 103 98 96 92 100 94 101 91 76 65 52 360 351 342 340 345 343 329 324 324 327 328 328 325 325 322 320 313 310 307 302 298 296 294 293 294 291 290 291 290 292 294 297 298 304 306 309 307 299 287 281 281 281 277 267 250 233 222 229 190 211 179 70 351 308 270 168 106 359 353 351 272 304 259 243
137 186 170 180 64 64 51 168 153 135 134 153 155 152 136 136 134 142 48 12 223 242 60 48 354 341 332 329 333 322 324 322 318 312 314 316 316 315 318 316 313 309 305 299 295 292 291 292 289 287 285 286 290 290 287 284 288 294 300 299 291 284 278 271 273 284 277 259 217 189 188 198 191 224 229 176 191 221 271 169 196 278 282 282 299 292 276
35 12 158 167 182 32 92 107 126 138 157 155 123 118 116 124 133 167 249 303 316 329 353 341 352 318 313 312 311 303 305 302 302 302 301 301 299 302 307 311 310 307 303 299 295 293 293 290 288 286 284 284 285 285 282 282 281 282 288 291 288 282 280 279 267 245 249 239 222 201 189 173 207 225 230 257 233 176 186 186 187 213 236 247 257 250 251
91 63 134 146 79 94 58 89 86 97 134 150 137 144 146 156 201 208 271 318 335 326 324 323 325 315 304 310 300 299 304 304 301 301 300 295 296 302 308 307 307 306 302 298 294 291 290 289 288 288 285 283 281 279 279 278 277 279 287 291 287 281 275 274 260 216 216 198 195 199 200 197 199 196 229 240 252 253 169 174 189 195 187 210 224 239 237
116 102 96 103 97 95 109 118 104 111 138 135 121 157 178 215 244 215 261 313 319 284 301 308 313 317 304 297 299 299 296 295 304 305 300 300 302 307 308 307 306 304 299 295 292 290 287 285 284 283 281 279 275 273 274 273 279 284 291 292 287 278 273 268 242 201 185 188 181 187 194 236 231 231 223 240 253 260 272 262 215 196 187 176 165 236 233
101 127 128 118 117 132 201 235 204 162 154 154 167 169 198 220 6 262 91 233 275 289 283 291 293 298 295 277 280 285 287 295 299 298 302 301 307 309 307 306 304 301 297 293 290 288 288 287 283 278 277 275 269 267 265 271 279 286 292 294 289 263 255 275 256 216 176 173 176 175 186 207 218 220 225 228 240 248 252 256 259 264 263 179 128 61 307
117 61 350 3 70 166 214 202 157 152 167 175 178 184 157 112 183 211 247 262 261 268 271 264 278 289 294 298 297 300 300 301 307 308 307 306 312 310 307 305 303 300 297 292 288 288 288 285 283 279 274 275 272 268 265 267 271 279 286 292 282 269 229 210 254 277 286 324 130 248 261 254 249 249 254 249 235 237 241 249 259 266 261 270 337 51 35
93 76 50 42 75 104 79 97 122 147 179 214 339 76 122 168 213 251 260 273 281 280 288 305 280 280 289 303 309 305 306 308 310 312 309 310 311 308 308 306 303 300 295 290 287 286 284 280 277 273 271 273 274 270 265 264 263 266 276 286 288 273 247 230 230 238 258 316 279 314 298 286 271 257 255 248 243 243 242 242 244 247 257 250 210 116 86
132 110 118 111 125 138 132 143 159 173 196 200 199 186 189 231 270 277 290 290 273 295 314 306 300 305 305 305 310 310 308 309 306 302 304 312 313 314 313 311 308 301 296 291 290 289 284 279 274 270 271 270 266 261 260 257 254 260 270 277 271 259 242 205 194 208 12 335 4 350 288 280 276 273 264 255 244 237 235 235 219 219 226 223 214 199 135
107 101 105 121 151 173 168 172 178 191 198 196 203 211 204 226 264 282 288 295 277 290 304 308 305 305 313 319 320 311 301 294 300 305 311 318 321 320 318 315 308 302 300 296 294 290 283 277 271 267 264 262 258 254 252 248 251 253 265 267 253 245 225 200 351 32 4 334 318 299 290 282 277 269 261 250 237 225 217 212 204 210 209 190 175 161 144
118 115 122 138 163 176 189 191 198 202 206 180 186 217 228 249 279 291 296 291 306 303 300 300 305 313 318 322 317 303 299 310 309 302 306 318 324 323 316 306 299 291 287 289 290 287 282 276 268 264 262 260 254 247 240 241 246 250 255 246 232 188 164 197 123 60 27 355 318 287 281 279 274 266 255 241 226 212 195 183 180 173 157 133 134 113 124
137 161 198 188 187 204 227 217 215 217 203 199 209 223 226 238 259 267 272 280 287 293 291 294 302 311 320 317 304 312 322 310 294 302 322 328 324 320 311 305 296 296 299 299 298 291 281 269 268 268 258 248 242 237 232 237 242 251 250 221 197 151 130 110 58 60 36 357 327 320 300 288 273 255 243 222 200 178 160 140 124 112 107 106 103 104 121
178 234 286 226 225 248 250 241 212 227 214 205 198 205 223 232 239 259 269 271 274 280 292 302 308 319 317 309 319 311 303 314 331 333 327 322 322 319 314 308 303 300 297 298 314 323 317 293 277 265 251 235 228 227 230 233 241 245 225 172 169 153 146 121 62 34 24 354 340 7 1 16 54 95 113 111 102 96 107 110 114 118 115 106 102 96 92
118 114 131 217 216 240 237 254 215 206 203 197 197 214 230 244 246 264 280 280 280 294 303 305 308 321 308 308 309 304 325 328 324 317 316 319 322 319 316 312 319 327 331 346 359 346 336 325 294 249 207 209 213 215 218 219 223 211 165 149 136 129 126 103 41 28 52 73 37 31 24 52 63 62 71 81 90 92 95 101 108 114 115 101 97 89 91
156 159 182 206 212 208 207 212 203 181 182 205 222 221 220 244 265 276 290 295 306 296 288 295 305 288 308 340 320 333 325 324 312 319 323 324 322 321 317 327 338 341 348 349 6 353 351 28 55 80 117 147 181 196 205 210 191 159 138 127 114 110 100 89 97 111 116 109 75 63 49 41 51 62 69 78 88 95 95 98 111 110 101 96 100 100 106
197 198 192 208 182 188 194 192 179 177 188 193 200 209 248 250 260 288 287 286 287 283 287 295 296 337 339 290 259 278 293 320 335 326 316 317 317 317 320 339 350 351 350 357 348 340 350 32 44 121 119 108 138 177 202 198 157 134 116 104 102 100 105 101 80 93 113 115 105 87 83 78 73 66 67 79 93 98 95 99 92 86 86 88 88 108 121
178 194 203 193 179 185 196 187 181 191 176 169 202 218 241 275 294 302 303 290 273 271 267 254 257 285 265 232 261 320 322 327 325 312 312 320 337 329 340 3 1 354 351 342 324 328 337 341 298 349 97 117 125 115 118 131 113 101 95 97 95 99 96 95 100 97 111 115 107 109 98 93 91 84 78 77 74 75 68 78 80 83 84 81 81 83 94
153 186 200 160 163 165 158 153 174 197 204 230 254 256 211 231 260 277 282 287 287 301 288 281 201 208 13 354 347 346 340 336 329 326 326 329 339 346 342 10 4 343 326 319 324 335 348 4 57 69 72 75 87 89 93 78 78 88 95 99 98 89 81 78 75 77 72 76 85 86 80 75 75 82 88 88 87 81 68 69 78 82 85 93 98 92 86
181 184 176 163 180 176 180 194 194 212 218 232 242 272 275 257 274 280 286 282 338 318 286 290 334 353 358 348 346 349 350 342 332 329 338 328 335 338 332 12 3 350 348 347 348 348 3 19 45 56 56 58 78 87 74 71 75 79 82 87 92 94 86 80 82 84 85 89 97 104 105 93 83 87 88 89 87 85 98 97 89 90 93 92 91 91 91
193 177 170 183 180 177 198 197 216 221 225 231 233 245 246 252 274 276 273 298 348 303 306 326 328 345 6 343 335 333 330 335 344 1 352 343 352 352 356 3 355 348 352 347 344 347 16 34 35 45 46 48 62 69 86 66 74 77 79 79 83 82 77 75 78 85 90 91 83 76 79 88 86 81 75 77 78 84 89 91 94 97 99 105 109 114 111
190 171 175 190 190 198 207 206 204 239 243 231 237 240 243 226 228 254 270 221 231 252 260 301 19 347 350 321 310 313 333 351 357 7 14 22 9 352 351 354 347 352 350 347 349 358 19 30 32 37 46 59 61 54 66 72 74 76 80 78 80 80 81 76 74 72 75 79 82 83 80 82 82 83 82 83 89 92 93 95 96 96 100 104 109 113 115
181 187 192 197 197 199 201 204 209 230 255 258 235 238 234 223 229 233 226 208 200 208 216 220 179 205 231 296 322 338 3 359 5 8 20 49 42 27 1 329 334 351 353 355 1 14 22 31 39 51 49 63 67 64 66 70 71 69 77 82 82 79 73 66 71 72 77 79 76 75 77 82 85 88 96 98 95 95 96 95 96 98 101 104 106 108 100
186 195 201 200 204 198 191 200 210 214 248 261 245 224 226 224 221 229 230 215 198 192 212 207 211 220 241 305 311 355 34 14 17 10 3 25 49 49 23 354 350 351 359 358 9 20 22 25 32 52 68 71 70 74 80 82 78 70 69 70 67 73 76 75 71 71 70 70 75 77 74 72 76 81 86 98 100 97 97 100 101 103 105 105 107 109 111
203 202 203 209 201 181 196 199 202 216 224 252 274 251 242 244 233 222 227 229 233 198 185 203 204 202 191 198 300 28 47 36 22 357 12 17 12 17 7 353 2 7 0 348 13 26 32 24 22 30 56 60 69 72 85 86 86 85 87 81 75 72 69 67 68 70 72 76 77 79 77 77 77 81 89 86 87 92 94 97 99 102 106 107 107 108 109
217 215 207 198 202 207 207 204 205 193 201 226 255 263 249 248 248 226 212 224 229 217 200 196 199 198 188 178 172 195 219 193 94 47 39 13 10 352 356 344 6 8 351 354 28 20 32 9 23 38 47 56 66 76 84 89 95 97 94 92 91 90 87 83 73 69 71 78 81 79 79 78 83 86 85 86 85 87 87 90 93 91 93 97 99 100 101
210 204 204 208 215 216 209 202 176 188 205 218 239 253 252 227 227 230 220 210 222 219 192 183 193 192 189 185 180 187 208 191 159 151 124 102 187 257 352 1 21 6 13 32 32 27 15 19 30 37 49 49 57 79 75 74 73 81 84 88 87 90 91 95 96 95 90 83 82 88 87 86 87 88 88 89 88 88 90 88 89 92 93 95 97 96 98
198 209 209 205 209 192 179 183 188 204 209 219 224 234 243 239 231 235 222 214 216 213 203 194 185 181 185 194 199 201 219 218 237 155 178 137 71 49 40 33 19 351 9 77 62 44 25 29 38 45 47 53 65 70 69 70 72 74 77 75 78 82 89 93 93 92 94 93 95 93 93 90 88 87 88 89 90 90 89 92 95 95 96 99 102 102 101
208 210 194 189 187 183 190 194 199 211 222 213 211 227 225 226 235 227 215 211 216 223 218 203 190 182 186 193 194 194 185 198 272 111 144 161 117 107 98 124 140 5 40 55 52 65 33 31 42 41 46 49 68 70 74 74 71 71 72 75 78 78 84 88 88 89 88 86 86 87 89 88 86 86 86 87 89 88 88 86 86 92 97 97 94 93 94
210 193 193 194 190 193 195 198 211 218 209 196 210 217 204 199 231 229 211 210 215 218 224 212 203 190 185 181 190 191 185 181 189 189 168 159 140 140 119 87 76 50 37 62 69 72 59 46 51 43 51 66 65 68 72 74 76 70 77 76 76 79 67 71 68 71 85 87 86 86 85 83 81 78 76 77 76 83 88 86 81 75 74 89 101 104 106
198 207 216 204 206 207 197 206 220 214 208 202 205 197 191 206 224 227 220 209 191 201 220 213 214 201 186 183 182 184 179 184 176 171 180 169 159 145 146 124 101 80 85 88 81 75 74 66 59 67 69 69 70 66 68 75 83 80 75 79 79 93 105 105 105 93 79 82 89 85 84 87 86 85 83 83 81 81 83 88 93 93 90 88 80 83 83
229 231 234 222 221 214 219 223 231 230 226 215 206 196 200 211 221 227 221 200 212 214 210 201 214 207 195 190 185 179 177 178 170 167 181 173 166 167 153 163 143 134 129 110 95 85 81 89 81 62 67 83 87 89 84 73 74 76 74 75 83 77 54 61 84 97 99 97 92 92 83 82 92 93 88 85 84 85 84 85 85 83 80 79 76 71 76